{"data":{"norad_id":52565,"epoch":"2026-09-19T18:27:48.767616Z","epoch_age_seconds":126388,"freshness":"FRESH","line1":"1 52565U 22051AJ  26262.76931444  .00000156  00000+0  16062-4 0  9999","line2":"2 52565  53.1601 321.3389 0001035  87.3158 272.7963 15.33558970240964","mean_motion":15.3355897,"eccentricity":0.0001035,"inclination_deg":53.1601,"raan_deg":321.3389,"arg_perigee_deg":87.3158,"mean_anomaly_deg":272.7963,"bstar":1.6062e-5,"rev_number":24096,"period_min":93.899225798927,"perigee_km":464.49581513957,"apogee_km":465.91238674747,"semimajor_km":6843.3411009435,"source":"CELESTRAK","updated_at":"2026-09-20T09:00:40.063597Z"}}